Time,TemperatureF,DewpointF,PressureIn,WindDirection,WindDirectionDegrees,WindSpeedMPH,WindSpeedGustMPH,Humidity,HourlyPrecipIn,Conditions,Clouds,dailyrainin,SolarRadiationWatts/m^2,SoftwareType,DateUTC
2013-05-05 00:01:00,68.0,20.0,-100.00,WNW,296,9.0,24.0,16,0.00,,,0.00,0.000000,,2013-05-05 07:01:00,
2013-05-05 00:11:00,68.0,20.0,-100.00,WNW,296,9.0,24.0,16,0.00,,,0.00,0.000000,,2013-05-05 07:11:00,
2013-05-05 00:21:00,68.0,20.0,-100.00,WNW,296,9.0,24.0,16,0.00,,,0.00,0.000000,,2013-05-05 07:21:00,
2013-05-05 00:52:00,66.0,20.0,-100.00,WNW,300,3.0,15.0,17,0.00,,,0.00,0.000000,,2013-05-05 07:52:00,
2013-05-05 01:02:00,66.0,20.0,-100.00,WNW,300,3.0,15.0,17,0.00,,,0.00,0.000000,,2013-05-05 08:02:00,
2013-05-05 01:11:00,66.0,20.0,-100.00,WNW,300,3.0,15.0,17,0.00,,,0.00,0.000000,,2013-05-05 08:11:00,
2013-05-05 01:21:00,66.0,20.0,-100.00,WNW,300,3.0,15.0,17,0.00,,,0.00,0.000000,,2013-05-05 08:21:00,
2013-05-05 01:53:00,62.0,24.0,-100.00,SW,230,0.0,6.0,23,0.00,,,0.00,0.000000,,2013-05-05 08:53:00,
2013-05-05 02:01:00,62.0,24.0,-100.00,SW,230,0.0,6.0,23,0.00,,,0.00,0.000000,,2013-05-05 09:01:00,
2013-05-05 02:11:00,62.0,24.0,-100.00,SW,230,0.0,6.0,23,0.00,,,0.00,0.000000,,2013-05-05 09:11:00,
2013-05-05 02:21:00,62.0,24.0,-100.00,SW,230,0.0,6.0,23,0.00,,,0.00,0.000000,,2013-05-05 09:21:00,
2013-05-05 02:52:00,60.0,23.0,-100.00,SW,226,0.0,7.0,24,0.00,,,0.00,0.000000,,2013-05-05 09:52:00,
2013-05-05 03:02:00,60.0,23.0,-100.00,SW,226,0.0,7.0,24,0.00,,,0.00,0.000000,,2013-05-05 10:02:00,
2013-05-05 03:12:00,60.0,23.0,-100.00,SW,226,0.0,7.0,24,0.00,,,0.00,0.000000,,2013-05-05 10:12:00,
2013-05-05 03:22:00,60.0,23.0,-100.00,SW,226,0.0,7.0,24,0.00,,,0.00,0.000000,,2013-05-05 10:22:00,
2013-05-05 03:53:00,57.0,25.0,-100.00,SW,233,4.0,9.0,29,0.00,,,0.00,0.000000,,2013-05-05 10:53:00,
2013-05-05 04:01:00,57.0,25.0,-100.00,SW,233,4.0,9.0,29,0.00,,,0.00,0.000000,,2013-05-05 11:01:00,
2013-05-05 04:11:00,57.0,25.0,-100.00,SW,233,4.0,9.0,29,0.00,,,0.00,0.000000,,2013-05-05 11:11:00,
2013-05-05 04:21:00,57.0,25.0,-100.00,SW,233,4.0,9.0,29,0.00,,,0.00,0.000000,,2013-05-05 11:21:00,
2013-05-05 04:52:00,58.0,25.0,-100.00,SW,235,6.0,13.0,28,0.00,,,0.00,0.000000,,2013-05-05 11:52:00,
2013-05-05 05:01:00,58.0,25.0,-100.00,SW,235,6.0,13.0,28,0.00,,,0.00,0.000000,,2013-05-05 12:01:00,
2013-05-05 05:11:00,58.0,25.0,-100.00,SW,235,6.0,13.0,28,0.00,,,0.00,0.000000,,2013-05-05 12:11:00,
2013-05-05 05:21:00,58.0,25.0,-100.00,SW,235,6.0,13.0,28,0.00,,,0.00,0.000000,,2013-05-05 12:21:00,
2013-05-05 05:52:00,54.0,25.0,-100.00,SSW,198,1.0,9.0,32,0.00,,,0.00,0.000000,,2013-05-05 12:52:00,
2013-05-05 06:01:00,54.0,25.0,-100.00,SSW,198,1.0,9.0,32,0.00,,,0.00,0.000000,,2013-05-05 13:01:00,
2013-05-05 06:11:00,54.0,25.0,-100.00,SSW,198,1.0,9.0,32,0.00,,,0.00,0.000000,,2013-05-05 13:11:00,
2013-05-05 06:21:00,54.0,25.0,-100.00,SSW,198,1.0,9.0,32,0.00,,,0.00,0.000000,,2013-05-05 13:21:00,
2013-05-05 06:52:00,55.0,23.0,-100.00,WSW,244,2.0,8.0,28,0.00,,,0.00,12.000000,,2013-05-05 13:52:00,
2013-05-05 07:01:00,55.0,23.0,-100.00,WSW,244,2.0,8.0,28,0.00,,,0.00,12.000000,,2013-05-05 14:01:00,
2013-05-05 07:11:00,55.0,23.0,-100.00,WSW,244,2.0,8.0,28,0.00,,,0.00,12.000000,,2013-05-05 14:11:00,
2013-05-05 07:21:00,55.0,23.0,-100.00,WSW,244,2.0,8.0,28,0.00,,,0.00,12.000000,,2013-05-05 14:21:00,
2013-05-05 07:52:00,60.0,20.0,-100.00,SE,128,1.0,12.0,21,0.00,,,0.00,204.000000,,2013-05-05 14:52:00,
2013-05-05 08:01:00,60.0,20.0,-100.00,SE,128,1.0,12.0,21,0.00,,,0.00,204.000000,,2013-05-05 15:01:00,
2013-05-05 08:11:00,60.0,20.0,-100.00,SE,128,1.0,12.0,21,0.00,,,0.00,204.000000,,2013-05-05 15:11:00,
2013-05-05 08:21:00,60.0,20.0,-100.00,SE,128,1.0,12.0,21,0.00,,,0.00,204.000000,,2013-05-05 15:21:00,
2013-05-05 08:53:00,62.0,25.0,-100.00,SSE,166,0.0,15.0,24,0.00,,,0.00,481.000000,,2013-05-05 15:53:00,
2013-05-05 09:03:00,62.0,25.0,-100.00,SSE,166,0.0,15.0,24,0.00,,,0.00,481.000000,,2013-05-05 16:03:00,
2013-05-05 09:12:00,62.0,25.0,-100.00,SSE,166,0.0,15.0,24,0.00,,,0.00,481.000000,,2013-05-05 16:12:00,
2013-05-05 09:22:00,62.0,25.0,-100.00,SSE,166,0.0,15.0,24,0.00,,,0.00,481.000000,,2013-05-05 16:22:00,
2013-05-05 09:53:00,61.0,27.0,-100.00,SE,141,5.0,11.0,27,0.00,,,0.00,557.000000,,2013-05-05 16:53:00,
2013-05-05 10:02:00,61.0,27.0,-100.00,SE,141,5.0,11.0,27,0.00,,,0.00,557.000000,,2013-05-05 17:02:00,
2013-05-05 10:12:00,61.0,27.0,-100.00,SE,141,5.0,11.0,27,0.00,,,0.00,557.000000,,2013-05-05 17:12:00,
2013-05-05 10:23:00,61.0,27.0,-100.00,SE,141,5.0,11.0,27,0.00,,,0.00,557.000000,,2013-05-05 17:23:00,
2013-05-05 10:52:00,61.0,29.0,-100.00,South,173,17.0,35.0,30,0.00,,,0.00,634.000000,,2013-05-05 17:52:00,
2013-05-05 11:01:00,61.0,29.0,-100.00,South,173,17.0,35.0,30,0.00,,,0.00,634.000000,,2013-05-05 18:01:00,
2013-05-05 11:11:00,61.0,29.0,-100.00,South,173,17.0,35.0,30,0.00,,,0.00,634.000000,,2013-05-05 18:11:00,
2013-05-05 11:21:00,61.0,29.0,-100.00,South,173,17.0,35.0,30,0.00,,,0.00,634.000000,,2013-05-05 18:21:00,
2013-05-05 11:52:00,60.0,33.0,-100.00,South,184,22.0,35.0,36,0.00,,,0.00,764.000000,,2013-05-05 18:52:00,
2013-05-05 12:01:00,60.0,33.0,-100.00,South,184,22.0,35.0,36,0.00,,,0.00,764.000000,,2013-05-05 19:01:00,
2013-05-05 12:11:00,60.0,33.0,-100.00,South,184,22.0,35.0,36,0.00,,,0.00,764.000000,,2013-05-05 19:11:00,
2013-05-05 12:21:00,60.0,33.0,-100.00,South,184,22.0,35.0,36,0.00,,,0.00,764.000000,,2013-05-05 19:21:00,
2013-05-05 12:52:00,62.0,32.0,-100.00,South,186,28.0,39.0,32,0.00,,,-99.99,739.000000,,2013-05-05 19:52:00,
2013-05-05 13:01:00,62.0,32.0,-100.00,South,186,28.0,39.0,32,0.00,,,-99.99,739.000000,,2013-05-05 20:01:00,
2013-05-05 13:11:00,62.0,32.0,-100.00,South,186,28.0,39.0,32,0.00,,,-99.99,739.000000,,2013-05-05 20:11:00,
2013-05-05 13:21:00,62.0,32.0,-100.00,South,186,28.0,39.0,32,0.00,,,-99.99,739.000000,,2013-05-05 20:21:00,
2013-05-05 13:52:00,63.0,32.0,-100.00,South,187,29.0,42.0,31,0.00,,,0.00,1043.000000,,2013-05-05 20:52:00,
2013-05-05 14:01:00,63.0,32.0,-100.00,South,187,29.0,42.0,31,0.00,,,0.00,1043.000000,,2013-05-05 21:01:00,
2013-05-05 14:11:00,63.0,32.0,-100.00,South,187,29.0,42.0,31,0.00,,,0.00,1043.000000,,2013-05-05 21:11:00,
2013-05-05 14:21:00,63.0,32.0,-100.00,South,187,29.0,42.0,31,0.00,,,0.00,1043.000000,,2013-05-05 21:21:00,
2013-05-05 14:53:00,59.0,32.0,-100.00,SSW,193,36.0,46.0,36,0.00,,,0.00,668.000000,,2013-05-05 21:53:00,
2013-05-05 15:02:00,59.0,32.0,-100.00,SSW,193,36.0,46.0,36,0.00,,,0.00,668.000000,,2013-05-05 22:02:00,
2013-05-05 15:12:00,59.0,32.0,-100.00,SSW,193,36.0,46.0,36,0.00,,,0.00,668.000000,,2013-05-05 22:12:00,
2013-05-05 15:22:00,59.0,32.0,-100.00,SSW,193,36.0,46.0,36,0.00,,,0.00,668.000000,,2013-05-05 22:22:00,
2013-05-05 15:52:00,60.0,32.0,-100.00,South,187,31.0,43.0,35,0.00,,,0.00,498.000000,,2013-05-05 22:52:00,
2013-05-05 16:02:00,60.0,32.0,-100.00,South,187,31.0,43.0,35,0.00,,,0.00,498.000000,,2013-05-05 23:02:00,
2013-05-05 16:11:00,60.0,32.0,-100.00,South,187,31.0,43.0,35,0.00,,,0.00,498.000000,,2013-05-05 23:11:00,
2013-05-05 16:21:00,60.0,32.0,-100.00,South,187,31.0,43.0,35,0.00,,,0.00,498.000000,,2013-05-05 23:21:00,
2013-05-05 16:52:00,58.0,33.0,-100.00,South,185,29.0,38.0,39,0.00,,,0.00,372.000000,,2013-05-05 23:52:00,
2013-05-05 17:01:00,58.0,33.0,-100.00,South,185,29.0,38.0,39,0.00,,,0.00,372.000000,,2013-05-06 00:01:00,
2013-05-05 17:11:00,58.0,33.0,-100.00,South,185,29.0,38.0,39,0.00,,,0.00,372.000000,,2013-05-06 00:11:00,
2013-05-05 17:21:00,58.0,33.0,-100.00,South,185,29.0,38.0,39,0.00,,,0.00,372.000000,,2013-05-06 00:21:00,
2013-05-05 17:51:00,57.0,34.0,-100.00,SSW,194,20.0,41.0,42,0.00,,,0.00,332.000000,,2013-05-06 00:51:00,
2013-05-05 18:01:00,57.0,34.0,-100.00,SSW,194,20.0,41.0,42,0.00,,,0.00,332.000000,,2013-05-06 01:01:00,
2013-05-05 18:11:00,57.0,34.0,-100.00,SSW,194,20.0,41.0,42,0.00,,,0.00,332.000000,,2013-05-06 01:11:00,
2013-05-05 18:21:00,57.0,34.0,-100.00,SSW,194,20.0,41.0,42,0.00,,,0.00,332.000000,,2013-05-06 01:21:00,
2013-05-05 18:52:00,57.0,35.0,-100.00,SSW,200,14.0,25.0,43,0.00,,,0.00,185.000000,,2013-05-06 01:52:00,
2013-05-05 19:01:00,57.0,35.0,-100.00,SSW,200,14.0,25.0,43,0.00,,,0.00,185.000000,,2013-05-06 02:01:00,
2013-05-05 19:11:00,57.0,35.0,-100.00,SSW,200,14.0,25.0,43,0.00,,,0.00,185.000000,,2013-05-06 02:11:00,
2013-05-05 19:21:00,57.0,35.0,-100.00,SSW,200,14.0,25.0,43,0.00,,,0.00,185.000000,,2013-05-06 02:21:00,
2013-05-05 19:52:00,56.0,36.0,-100.00,South,189,12.0,20.0,47,0.00,,,0.00,62.000000,,2013-05-06 02:52:00,
2013-05-05 20:01:00,56.0,36.0,-100.00,South,189,12.0,20.0,47,0.00,,,0.00,62.000000,,2013-05-06 03:01:00,
2013-05-05 20:11:00,56.0,36.0,-100.00,South,189,12.0,20.0,47,0.00,,,0.00,62.000000,,2013-05-06 03:11:00,
2013-05-05 20:22:00,56.0,36.0,-100.00,South,189,12.0,20.0,47,0.00,,,0.00,62.000000,,2013-05-06 03:22:00,
2013-05-05 20:52:00,54.0,37.0,-100.00,South,182,8.0,21.0,53,0.00,,,0.00,3.000000,,2013-05-06 03:52:00,
2013-05-05 21:02:00,54.0,37.0,-100.00,South,182,8.0,21.0,53,0.00,,,0.00,3.000000,,2013-05-06 04:02:00,
2013-05-05 21:12:00,54.0,37.0,-100.00,South,182,8.0,21.0,53,0.00,,,0.00,3.000000,,2013-05-06 04:12:00,
2013-05-05 21:23:00,54.0,37.0,-100.00,South,182,8.0,21.0,53,0.00,,,0.00,3.000000,,2013-05-06 04:23:00,
2013-05-05 21:53:00,53.0,35.0,-100.00,SSW,195,11.0,19.0,51,0.00,,,0.00,0.000000,,2013-05-06 04:53:00,
2013-05-05 22:02:00,53.0,35.0,-100.00,SSW,195,11.0,19.0,51,0.00,,,0.00,0.000000,,2013-05-06 05:02:00,
2013-05-05 22:12:00,53.0,35.0,-100.00,SSW,195,11.0,19.0,51,0.00,,,0.00,0.000000,,2013-05-06 05:12:00,
2013-05-05 22:22:00,53.0,35.0,-100.00,SSW,195,11.0,19.0,51,0.00,,,0.00,0.000000,,2013-05-06 05:22:00,
2013-05-05 22:52:00,52.0,34.0,-100.00,SSW,206,9.0,23.0,50,0.00,,,0.00,0.000000,,2013-05-06 05:52:00,
2013-05-05 23:02:00,52.0,34.0,-100.00,SSW,206,9.0,23.0,50,0.00,,,0.00,0.000000,,2013-05-06 06:02:00,
2013-05-05 23:12:00,52.0,34.0,-100.00,SSW,206,9.0,23.0,50,0.00,,,0.00,0.000000,,2013-05-06 06:12:00,
2013-05-05 23:21:00,52.0,34.0,-100.00,SSW,206,9.0,23.0,50,0.00,,,0.00,0.000000,,2013-05-06 06:21:00,
2013-05-05 23:52:00,53.0,33.0,-100.00,SSW,201,11.0,18.0,47,0.00,,,0.00,0.000000,,2013-05-06 06:52:00,